Location: Clifton Park
(41.4873°N, 81.8024°W)
Time: 02:01:05
(UTC+00:00)

STARLINK-39 - Pass Details

Date: 21 January 2020
Orbit: 528 x 531 km, 53.0° (Epoch: 22 February)

Event Time Altitude Azimuth Distance (km) Brightness Sun altitude
Exits shadow 10:47:56 62° 192° (SSW) 595 3.6 -22.3°
Maximum altitude 10:48:26 73° 140° (SE) 556 3.6 -22.2°
Drops below altitude 10° 10:52:27 10° 55° (NE) 1,776 6.8 -21.5°
Sets 10:54:40 0° 54° (NE) 2,669 7.8 -21.1°
